www.pogodaiklimat.ru

Архив погоды в Салехарде (Ямало-Ненецкий АО, Россия)

Время
(UTC), дата
03 24.02
06 24.02
09 24.02
12 24.02
15 24.02
18 24.02
21 24.02
00 25.02
03 25.02
06 25.02
09 25.02
12 25.02
15 25.02
18 25.02
21 25.02
00 26.02
03 26.02
06 26.02
09 26.02
12 26.02
15 26.02
18 26.02
21 26.02
00 27.02
03 27.02
06 27.02
09 27.02
12 27.02
15 27.02
18 27.02
21 27.02
00 28.02
03 28.02
06 28.02
09 28.02
12 28.02
15 28.02
18 28.02
21 28.02
00 29.02
03 29.02
06 29.02
09 29.02
12 29.02
15 29.02
18 29.02
21 29.02
00 1.03
03 1.03
06 1.03
09 1.03
12 1.03
15 1.03
18 1.03
Ветер
(напр.,м/с)
Видим. Явления Облачность Т
(С)
Тd
(С)
f
(%)
Тe
(С)
Тes
(С)
Комфортность P
(гПа)
Po
(гПа)
Тmin
(С)
Tmax
(С)
R
(мм)
R24
(мм)
S
(см)
Ю 3 20 км {ливн. снег} 10/5 1230 м [Cb calv Ac trans] -14.2 -16.6 82 -21 -21 по сезону 1019.6 1017.4 -23.6 0.3 47
Ю 2 10 км слаб. снег {ливн. снег} 10/8 240 м [Frnb Ac As] -11.6 -13.9 83 -16 -16 тепло 1019.3 1017.1
Ю 4 10 км слаб. ливневой снег 10/6 1050 м [Cb calv Ac trans] -9.0 -11.2 84 -16 -16 тепло 1018.7 1016.6
ЮЗ 2 20 км {ливн. снег, снег} 10/6 1500 м [Sc diur, vesp Ac trans] -7.2 -9.3 85 -12 -12 тепло 1019.1 1016.9
Ю 2 10 км 10/5 1000 м [Sc diur, vesp Ac trans] -6.6 -8.6 86 -11 -11 тепло 1018.9 1016.8 -6.6 0.8
Ю 1 10 км {ливн. снег} 10/10 1500 м [Cb calv] -6.2 -8.3 85 -9 -9 тепло 1018.8 1016.7
ЮЗ 2 10 км 10/6 1500 м [Sc diur, vesp Ac cast] -5.1 -7.6 83 -9 -9 тепло 1019.0 1016.9
ЮЗ 2 10 км 10/10 1470 м [Sc diur, vesp] -4.4 -6.9 83 -9 -9 тепло 1019.1 1017.0
Ю 2 20 км 10/8 1140 м [Sc Ac trans] -5.6 -8.0 83 -10 -10 тепло 1019.8 1017.7 -6.7 0.0 48
Ю 2 20 км 9/4 1000 м [Sc Ac trans Ci fib] -5.3 -7.5 84 -10 -9 тепло 1020.0 1017.8
Ю 2 20 км 8/1 1000 м [Sc Ac lent Ci fib] -3.3 -7.3 74 -7 -6 тепло 1020.0 1017.9
Ю 2 20 км 10/8 930 м [Sc Ac trans] -4.9 -7.2 84 -9 -9 тепло 1019.6 1017.5
Ю 3 10 км 10/8 600 м [Sc diur, vesp Ac trans] -5.3 -7.9 82 -11 -11 тепло 1019.3 1017.2 -3.2
Ю 3 10 км 10/8 600 м [Sc diur, vesp Ac trans] -5.5 -7.9 83 -11 -11 тепло 1017.1 1015.0
Ю 3 10 км 10/8 400 м [Sc diur, vesp Ac trans] -5.6 -7.7 85 -11 -11 тепло 1015.2 1013.1
Ю 2 4000 м слаб. снег 10/8 210 м [Frnb Ac As] -4.6 -6.2 89 -9 -9 тепло 1013.6 1011.5
Ю 3 20 км {снег} 10/8 180 м [Sc diur, vesp Ac trans] -3.5 -5.1 89 -9 -9 тепло 1013.4 1011.4 -6.0 1 49
Ю 3 20 км {снег} 6/3 600 м [Sc Ac trans] -2.7 -4.7 86 -8 -7 тепло 1014.5 1012.5
ЮЗ 3 10 км слаб. ливневой снег 8/5 540 м [Cb calv Ac trans] +2.3 -1.4 77 -2 -1 тепло 1016.4 1014.4
З 2 20 км {ливн. снег} 8/6 1200 м [Cb calv Ac trans] +1.8 -3.9 66 -1 -1 тепло 1018.0 1015.9
ЮЗ 3 10 км 9/6 600 м [Sc Ac trans] -0.4 -4.2 75 -5 -5 тепло 1018.6 1016.5 +3.1 0.0
Ю 3 10 км 10/5 600 м [Sc Ac trans] -1.6 -4.9 78 -6 -6 тепло 1018.6 1016.5
Ю 3 10 км 10/0 [Ac trans Cs] -1.4 -4.6 79 -6 -6 тепло 1018.6 1016.6
ЮВ 2 н/о н/о -6.4 -8.6 84 -11 -11 тепло 1018.6 1016.5
Ю 2 20 км 10/0 [Ac trans Ci fib] -6.9 -8.8 86 -11 -11 тепло 1017.8 1015.7 -7.7 49
В 1 20 км 10/0 [Ac As Cs] -6.2 -8.0 87 -9 -8 тепло 1016.8 1014.7 -7.8
Ю 2 4000 м дымка 10/10 120 м [St] -6.0 -7.7 88 -10 -10 тепло 1015.6 1013.5
Ю 1 1000 м дымка 10/10 60 м [St] -5.8 -7.4 88 -8 -8 тепло 1015.1 1013.0
Ю 1 4000 м дымка {туман} [диам. изморози 5 мм] 10/10 120 м [St] -5.8 -7.3 89 -8 -8 тепло 1014.9 1012.8 -5.5
ЮВ 1 10 км {туман} [диам. изморози 5 мм] 10/5 1200 м [Sc Ac trans] -5.6 -7.1 89 -8 -8 тепло 1014.7 1012.6
штиль 0 10 км [диам. изморози 5 мм] 10/8 1000 м [Sc Ac trans] -5.3 -6.8 89 -6 -6 тепло 1014.6 1012.5
ЮЗ 2 н/о н/о -5.0 -6.6 89 -9 -9 тепло 1014.9 1012.8
ЮВ 1 20 км [диам. изморози 2 мм] 10/5 1500 м [Sc Ac trans Ci fib] -3.4 -5.5 85 -6 -6 тепло 1015.1 1013.0 -7.0 49
ЮЗ 3 20 км {ливн. снег} [диам. изморози 0 мм] 6/3 300 м [Cb calv Ac trans Ci fib] -1.1 -4.5 78 -6 -5 тепло 1014.9 1012.8
З 4 20 км 8/3 600 м [Sc diur, vesp Ac trans Ci fib] +1.5 -5.7 59 -3 -3 тепло 1015.2 1013.1
З 3 {12} 20 км 8/5 600 м [Sc diur, vesp Ac trans Ci fib] +0.7 -4.5 68 -3 -3 тепло 1015.8 1013.7
З 2 {10} 10 км 5/5 600 м [Sc diur, vesp] -3.5 -8.5 68 -7 -7 тепло 1018.0 1015.9 +1.7 0.0
СЗ 1 {10} 10 км 6/3 1000 м [Sc Ci fib] -4.4 -9.6 67 -6 -6 тепло 1019.3 1017.2
СЗ 1 10 км 8/0 [Ac lent Cs] -8.9 -12.2 77 -11 -11 тепло 1020.7 1018.5
Ю 1 10 км 3/0 [Ci fib] -11.9 -13.7 86 -14 -14 по сезону 1021.7 1019.6
штиль 0 20 км 6/0 [Ac lent Ci] -16.8 -19.4 80 -17 -17 по сезону 1022.8 1020.6 -17.0 48
СВ 2 20 км 9/0 [Ac trans Cs] -10.9 -13.3 82 -15 -15 по сезону 1023.8 1021.7 -17.3
Ю 1 20 км 1/0 [Ci fib] -6.8 -10.9 73 -9 -7 тепло 1025.3 1023.1
Ю 1 20 км ясно -7.4 -11.0 75 -10 -10 по сезону 1026.5 1024.3
штиль 0 10 км ясно -17.6 -20.2 80 -18 -18 по сезону 1027.6 1025.4 -4.5
С 1 10 км 4/0 [Ci fib] -19.6 -22.5 78 -23 -23 холодно 1028.7 1026.5
штиль 0 500 м переохл. туман [диам. изморози 3 мм] 10/10 90 м [St] -17.7 -20.5 79 -18 -18 по сезону 1029.3 1027.1
штиль 0 500 м туман, небо видно [диам. изморози 7 мм] 10/10 120 м [St] -19.6 -22.6 77 -20 -20 по сезону 1029.7 1027.4
Ю 1 1000 м дымка {туман} [диам. изморози 8 мм] 10/10 90 м [St] -18.5 -21.3 79 -21 -21 по сезону 1030.5 1028.3 -19.6 47
Ю 1 1000 м дымка {туман} [диам. изморози 14 мм] 10/6 150 м [St Cs] -17.2 -19.9 79 -20 -19 по сезону 1030.9 1028.6
Ю 2 20 км 4/0 [Ac trans Ci fib] -13.3 -15.6 83 -18 -17 по сезону 1030.4 1028.2
Ю 3 20 км [диам. изморози 0 мм] 10/8 1300 м [Sc Ac trans] -10.6 -12.7 85 -17 -17 по сезону 1029.6 1027.4
Ю 2 10 км 10/6 800 м [Sc Ac trans] -10.0 -12.0 85 -15 -15 тепло 1028.3 1026.2 -9.8
Ю 3 10 км 10/8 1000 м [Sc diur, vesp Ac trans] -8.1 -10.0 86 -14 -14 тепло 1025.7 1023.6
Местоположение метеостанции Салехард (Ямало-Ненецкий АО, Россия): широта 66.53 долгота 66.67 высота над уровнем моря 16 м.
В архиве по умолчанию представлена погода в Салехарде за последнюю неделю. Архивные данные за месяц целиком и за предыдущие месяцы, начиная с января 2011 года, Вы можете получить, выбрав интересующий диапазон дат из раскрывающегося списка и нажав кнопку "Найти!".
*Определитесь, кто Вы:
Внимание! Время в таблицах - всемирное. Для получения местного времени необходимо прибавить поправку, которая равна 5 ч.
Некоторые строки с данными для отдельных станций могут быть выделены курсивом. Это означает, что фактические данные отсутствуют по различным причинам, а приведенные значения являются расчетными модельными данными для данного пункта наблюдений.
Смотрите также архив погоды в соседних городах и на ближайших метеорологических станциях:
Партнеры нашего сайта:      
Пояснения к столбцам:
  • Ветер - указаны скорость ветра в м/с - средняя за 10 мин, порывы в срок и между сроками (в фигурных скобках) и направление, откуда дует ветер: С - северный,
  • СВ - северо-восточный, В - восточный, ЮВ - юго-восточный, Ю - южный, ЮЗ - юго-западный, З - западный, СЗ - северо-западный.
  • Видимость - горизонтальная дальность видимости в метрах или километрах. При видимости от 1 до 10 км при отсутствии осадков обычно наблюдается дымка, при ухудшении видимости до 1 км и менее - туман. В сухую погоду видимость может ухудшаться дымом, пылью или мглою.
  • Явления - указаны атмосферные явления, наблюдавшиеся в срок или в последний час перед сроком; фигурными скобками обозначены явления, наблюдавшиеся между сроками (за 1-3 часа до срока); квадратными скобками обозначены град или гололедные отложения с указанием их диаметра в мм.
  • Облачность - указаны через наклонную черту общая и нижняя облачность в баллах и высота нижней границы облаков в метрах; квадратными скобками обозначены формы облаков: Ci - перистые, Cs - перисто-слоистые, Cc - перисто-кучевые, Ac - высококучевые, As - высокослоистые, Sc - слоисто-кучевые, Ns - слоисто-дождевые, Cu - кучевые, Cb - кучево-дождевые. Подробнее классификацию облаков см. в Атласе облаков (PDF).
  • T - Температура воздуха - температура, измеренная на высоте 2 м над землей.
  • Td - Температура точки росы - температура, при понижении до которой содержащийся в воздухе водяной пар достигнет насыщения.
  • f - Относительная влажность воздуха - влажноcть воздуха, измеренная на высоте 2 м над землей.
  • Te - Эффективная температура - температура, которую ощущает одетый по сезону человек в тени. Характеристика душности погоды. При расчете учитывается влияние влажности воздуха и скорости ветра на теплоощущения человека.
  • Tes - Эффективная температура на солнце - температура, которую ощущает человек, с поправкой на солнечный нагрев. Характеристика знойности погоды. Зависит от высоты солнца над горизонтом, облачности и скорости ветра. Ночью, в пасмурную погоду, а также при ветре 12 м/с и более поправка равна нулю.
  • P - Атмосферное давление - приведенное к уровню моря атмосферное давление.
  • Po - Атмосферное давление - измеренное на уровне метеостанции атмосферное давление.
  • Tmin - Минимальная температура - минимум температуры воздуха на высоте 2 м над землей.
  • Tmax - Максимальная температура - максимум температуры воздуха на высоте 2 м над землей.
  • R - Количество осадков - Количество выпавших осадков за период времени, мм. При наведении курсора мыши на число - период времени, за который выпало указанное количество осадков.
  • R24 - Количество осадков - Количество выпавших осадков за 24 часа, мм.
  • S - Снежный покров - Высота снежного покрова, см. При наведении курсора мыши на число - состояние снежного покрова и степень покрытия местности в баллах.